Starlink 34801

operational
NORAD ID: 66075 Int'l Des: 2025-235 Owner: SPXS Country: US Constellation: starlink
NOTLE

About Starlink 34801

Description loading...

Live Position

Loading 3D Globe...

Upcoming Passes

Altitude History

Altitude vs Time

uPlot chart will show altitude changes over time

Two-Line Element Set

1 66075C 25235U 25293.08451389 .00538110 00000+0 79460-3 0 2933
2 66075 53.1589 188.7677 0005655 295.3677 296.0685 16.03670304 18
Epoch: Oct 20, 2025 • Age: 14 hours

Current Status

Altitude 268.0 km
Velocity 7.75 km/s
Sub-Earth Point 30.49°N, 106.74°E
Launch Date Oct 19, 2025
Age 1 days
Type internet

Technical Details

Classification Payload
Mass 575.00 kg
Dry Mass 530.00 kg
Total Mass 575.00 kg
Length 0.30 m
Diameter 4.10 m
Span 29.00 m
Shape Box + pan
Manufacturer SPXS
Bus Type Starlink V2MO
Phase Status In Orbit
Owner/State SPXS/US

Large Constellations

Loading constellations...